Location: Unspecified
(0.0000°N, 0.0000°E)
Time: 10:48:44
(UTC+00:00)

Hubble Space Telescope - Pass Details

Date: 18 October 2017
Orbit: 537 x 541 km, 28.5° (Epoch: 15 December)

Event Time Altitude Azimuth Distance (km) Brightness Sun altitude
Exits shadow 04:43:40 27° 287° (WNW) 1,037 1.6 -15.2°
Maximum altitude 04:45:46 68° 211° (SSW) 578 0.8 -14.6°
Drops below altitude 10° 04:49:53 10° 127° (SE) 1,789 4.5 -13.6°
Sets 04:52:10 0° 125° (SE) 2,682 5.6 -13.1°
